カタログに戻る

STARLINK-31668

運用中通信VLEO
NORAD 59580·PAYLOAD·🇺🇸 United States

打ち上げ Apr 23, 2024 から Cape Canaveral Space Force Station

Loading…

次のパス (今後24時間)

TLE

最新Source: CelesTrak SupGP

元期: Sep 15, 2026, 01:54 UTC

1 59580C 24076S   26258.07965278 -.00015525  00000+0 -56236-3 0  2585
2 59580  43.0019  18.9613 0001480 272.1439  55.6798 15.27582976    18

AllMySatでSTARLINK-31668をリアルタイム追跡

Download on the App Store